Other Public Products
Issued by NWS Grand Forks, ND

Home | Current Version | Previous Version | Graphics & Text | Print | Product List | Glossary On
Versions: 1 2 3 4 5 6 7 8 9 10 11 12 13 14 15 16 17 18 19 20 21 22 23 24 25 26 27 28 29 30 31 32 33 34 35 36 37 38 39 40 41 42 43 44 45 46 47 48 49 50
000
FPUS83 KFGF 310231
OPUFGF
PRAIRIE TO PINES WEATHER ROUNDUP
NATIONAL WEATHER SERVICE EASTERN NORTH DAKOTA/GRAND FORKS ND
900 PM CDT MON MAY 30 2016

 **SATELLITE DATA USED TO AUGMENT SKY COVER AT AUTOMATED STATIONS**
 *****  WEATHER ACROSS EASTERN NORTH DAKOTA  *****

CITY           SKY/WX    TMP DP  RH WIND       PRES   REMARKS
GRAND FORKS    RAIN      62  54  74 E8        29.86R
GRAND FORKS AF CLOUDY    59  57  94 NE12      29.85F
GRAND CITY NWS   N/A     57 N/A N/A NE7         N/A
BUXTON           N/A     63  59  86 NW9G25      N/A
DEVILS LAKE    CLOUDY    59  55  87 E12       29.82F
FARGO          CLOUDY    75  54  47 E14       29.73F
WAHPETON ARPT  CLOUDY    72  52  49 E9        29.76S
$$

 *****  WEATHER ACROSS CENTRAL AND WESTERN NORTH DAKOTA  *****

CITY           SKY/WX    TMP DP  RH WIND       PRES   REMARKS
JAMESTOWN      TSTM      62  54  74 S9G23     29.78R
BISMARCK       CLOUDY    58  54  86 N17       29.82R
MINOT          LGT RAIN  58  54  86 NE8       29.86S
MINOT AFB      LGT RAIN  58  54  88 N8        29.86R
GARRISON         N/A     56  53  90 E13G23    29.82F
WILLISTON      LGT RAIN  55  53  93 NE5       29.91F FOG
DICKINSON      CLOUDY    53  50  89 NW16      29.89R
HETTINGER      PTCLDY    54  47  77 NW17G26   29.92S
$$

 *****  OTHER OBSERVATIONS NORTHEAST NORTH DAKOTA  *****

CITY           SKY/WX    TMP DP  RH WIND       PRES   REMARKS
WALHALLA       FAIR      64  59  82 SE7       29.86R
LANGDON        MOCLDY    61  57  88 S10       29.88S
CAVALIER       FAIR      64  55  72 S12G18    29.85R
GRAFTON        MOCLDY    63  59  88 E5        29.92R FOG
CANDO          CLOUDY    59  55  88 SE6       29.86S
FORT TOTTEN    NOT AVBL
ROLLA          LGT RAIN  59  55  88 W3        29.89R
RUGBY          LGT RAIN  57  57 100 NW8       29.85F
 ***** THE ABOVE OBSERVATIONS ARE NON NWS ARE NOT QUALITY
        CONTROLLED AND MAY MIS-REPORT RAIN FOR SNOW...
$$

 *****  OTHER OBSERVATIONS SOUTHEAST NORTH DAKOTA *****

CITY           SKY/WX    TMP DP  RH WIND       PRES   REMARKS
COOPERSTOWN    NOT AVBL
VALLEY CITY    LGT RAIN  59  59 100 E21G29    29.76F
OAKES            N/A    N/A N/A N/A MISG        N/A
GWINNER        FAIR      73  57  56 S8        29.73F
BUFFALO          N/A     61  56  85 NE16        N/A
WYNDMERE         N/A     75  54  46 E13         N/A
 ***** THE ABOVE OBSERVATIONS ARE NON NWS ARE NOT QUALITY
       CONTROLLED AND MAY MIS-REPORT RAIN FOR SNOW...
$$

  *****  WEATHER ACROSS NORTHERN MINNESOTA  *****

CITY           SKY/WX    TMP DP  RH WIND       PRES   REMARKS
FLAG ISLAND    CLOUDY    64  50  59 NE13      29.93S
WARROAD        CLOUDY    64  57  77 NE15G21   29.92R
ROSEAU         CLOUDY    66  57  72 E14       29.89F
HALLOCK        LGT RAIN  63  59  88 S8        29.86S
THF RVR FALLS  CLOUDY    64  52  63 N12       29.85F
HALSTAD        NOT AVBL
FOSSTON        MOCLDY    66  52  59 E7        29.84F
BAUDETTE       CLOUDY    66  48  52 E9        29.91R
WASKISH        MOCLDY    70  52  52 E7        29.90R
CROOKSTON      LGT RAIN  63  57  82 N10       29.85R
$$
  *****  WEATHER ACROSS CENTRAL AND WEST MINNESOTA  *****

CITY           SKY/WX    TMP DP  RH WIND       PRES   REMARKS
BEMIDJI        CLOUDY    63  55  75 E6        29.87S
PARK RAPIDS    CLOUDY    72  52  49 E10       29.86F
WADENA         PTCLDY    72  54  53 SE8       29.84S
DETROIT LAKES  CLOUDY    70  55  60 SE14G22   29.83S THUNDER
MOORHEAD       CLOUDY    72  55  56 SE10      29.76S
FERGUS FALLS   CLOUDY    73  55  53 SE9       29.75F
ELBOW LAKE     FAIR      73  56  56 SE12      29.80S
MORRIS MN      CLOUDY    75  55  50 SE13      29.79R
STAPLES        MOCLDY    72  52  49 E5        29.86S
WHEATON        CLOUDY    79  55  44 SE9       29.78R
$$
  *****  WEATHER ELSEWHERE ACROSS MINNESOTA  *****

CITY           SKY/WX    TMP DP  RH WIND       PRES   REMARKS
DULUTH         CLOUDY    68  46  45 SE9       29.95R
INTRNTL FALLS  CLOUDY    66  49  54 E12       29.94R
ELY            CLEAR     64  46  52 NE6       29.98R
CLOQUET        CLOUDY    66  52  59 CALM      29.94R
BRAINERD       PTCLDY    71  53  52 CALM      29.88F
HIBBING        CLOUDY    67  50  54 E3        29.93R
ALEXANDRIA     PTCLDY    74  52  46 SE12      29.84S
SAINT CLOUD    PTCLDY    75  52  44 E5        29.87R
MINNEAPOLIS    MOCLDY    77  52  41 SE13      29.89R
$$

  *****  WEATHER ACROSS SOUTH DAKOTA  *****

CITY           SKY/WX    TMP DP  RH WIND       PRES   REMARKS
SIOUX FALLS    CLOUDY    72  58  61 S5        29.77S
BROOKINGS      CLOUDY    75  57  53 SE5       29.78F
WATERTOWN      CLOUDY    73  55  53 S8        29.78R
HURON          CLOUDY    73  63  70 SE10      29.71F
SISSETON         N/A     76  54  46 S9        29.75R
ABERDEEN       TSTM      62  54  74 W24G36    29.78R
MITCHELL       CLOUDY    74  64  71 SE8       29.75S
PIERRE         LGT RAIN  60  56  86 NW15      29.81R
MOBRIDGE       CLOUDY    60  55  83 NW12      29.79R
RAPID CITY     LGT RAIN  54  49  83 NW26G40   29.99R
$$

  *****  SOME WEATHER IN NEARBY STATES *****

CITY           SKY/WX    TMP DP  RH WIND       PRES   REMARKS
GLASGOW MT     CLOUDY    53  42  66 W17G28    29.96R
GREAT FALLS MT CLOUDY    55  35  47 N14       30.16R
CHEYENNE WY    CLOUDY    59  45  59 SE3       30.04R
SCOTTSBLUFF NE MOCLDY    65  46  50 NW7       29.93S
OMAHA NE       MOCLDY    68  62  81 SE15      29.89S
DES MOINES IA  CLOUDY    76  54  46 SW15      29.92R
DAVENPORT IA   CLEAR     76  61  59 S6        29.95S
CHICAGO IL     CLOUDY    73  55  53 E7        29.97R
EAU CLAIRE WI  CLOUDY    72  54  53 SE6       29.93S
LA CROSSE WI   CLOUDY    74  56  53 E5        29.93S
$$

  *****  SOME NATIONAL WEATHER *****

CITY           SKY/WX    TMP DP  RH WIND       PRES   REMARKS
LA GUARDIA NY  CLOUDY    74  72  93 S9        29.94S
RALEIGH NC     LGT RAIN  71  70  96 CALM      29.97R
ATLANTA GA     MOCLDY    80  60  50 NW6       29.95R
NEW ORLEANS LA MOCLDY    79  69  71 SW6       29.95R
OKLAHOMA CITY  PTCLDY    74  66  76 SE9       29.90R
ALBUQUERQUE NM MOCLDY    79  28  15 SW9       29.96R
SALT LAKE CITY MOCLDY    75  34  22 N10       30.02F
LOS ANGELES CA MOSUNNY   62  55  77 W13       29.92S
BOISE ID       SUNNY     74  24  15 NW15      30.06S
SEATTLE WA     PTSUNNY   69  43  38 N12       30.21F
$$

*** WEATHER ACROSS MANITOBA...SASKATCHEWAN AND ONTARIO ***
                ***ONTARIO***

CITY           SKY/WX    TMP DP  RH WIND       PRES   REMARKS
GERALDTON      MOCLDY    46  41  81 N7        30.06R
THUNDER BAY    PTCLDY    55  45  67 N12G18    30.04R
SIOUX LOOKOUT  MOCLDY    55  46  71 SE3       30.06R
TORONTO        PTCLDY    70  48  46 W5        29.94S
BIG TROUT LK   PTCLDY    46  30  53 NE5       30.16R
PICKLE LAKE    PTCLDY    50  39  66 NE7       30.10R
DRYDEN         CLEAR     55  46  71 E10       30.03R
KENORA         MOCLDY    61  48  63 E10G17    29.99R
$$
                *** MANITOBA***

CITY           SKY/WX    TMP DP  RH WIND       PRES   REMARKS
BRANDON        CLOUDY    66  54  63 NE20      29.87S
DAUPHIN        MOCLDY    63  54  72 NE13      29.94R
ISLAND LAKE    MOCLDY    52  34  50 NE5       30.12R
PILOT MOUND      N/A     64  54  68 E1          N/A
THE PAS        PTCLDY    57  46  67 SE9       30.07R
THOMPSON       PTCLDY    54  36  50 NE7       30.16
WINNIPEG       MOCLDY    68  52  56 E17G24    29.89S
LYNN LAKE      LGT RAIN  45  43  93 E7        30.18S
CHURCHILL      PTCLDY    30  28  93 E12       30.39R WCI  21
GILLAM         PTCLDY    43  30  61 E6        30.25R
$$
                ***SASKATCHEWAN***

CITY           SKY/WX    TMP DP  RH WIND       PRES   REMARKS
ESTEVAN        LGT RAIN  54  52  94 NW14      29.90F FOG
KINDERSLEY     TSTM      52  48  87 N17       30.01R
LLOYDMINSTER   PTSUNNY   54  48  82 NW12      30.08R
PRINCE ALBERT  CLOUDY    61  46  59 E14       30.00R
REGINA         LGT RAIN  55  54  94 NE6       29.92S
YORKTON        PTCLDY    59  50  72 NE17G23   29.92R
N. BATTLEFORD  CLOUDY    63  45  51 NE12      30.02R   C1F1C2F2C3F3C4F4C5F5C6F6C7F7C8F8C9F9CaFaCbFbCcFcCdFdCe!



USA.gov is the U.S. government's official web portal to all federal, state and local government web resources and services.